Chehalis, WA

9:28 PM PST on February 10, 2016 (GMT -0800)
Chehalis-Centralia

Weather History for KCLS - November, 2013

Change the Weather History Date:

Friday, November 15, 2013

  Actual Average (KOLM) Record (KOLM)
Temperature  
Mean Temperature 42 °F 43 °F  
Max Temperature 48 °F 50 °F 63 °F (2001)
Min Temperature 37 °F 37 °F -1 °F (1955)
Degree Days  
Heating Degree Days 22 22  
Month to date heating degree days 300  
Since 1 July heating degree days 1094  
Cooling Degree Days 0 0  
Month to date cooling degree days 0  
Year to date cooling degree days 106  
Moisture  
Dew Point 42 °F    
Average Humidity 95    
Maximum Humidity 100    
Minimum Humidity 76    
Precipitation  
Precipitation 0.38 in 0.30 in 1.35 in (1973)
Month to date precipitation 4.07  
Year to date precipitation 37.98  
Sea Level Pressure  
Sea Level Pressure 29.83 in    
Wind  
Wind Speed 5 mph (SSW)    
Max Wind Speed 13 mph    
Max Gust Speed 21 mph    
Visibility 6 miles    
Events Fog , Rain    
T = Trace of Precipitation, MM = Missing Value Source: NWS Daily Summary

Daily Weather History Graph

Daily Weather History Graph

Search for Another Location

Airport or City:

Trip Planner

Search our weather history database for the weather conditions in past years. The results will help you decide how hot, cold, wet, or windy it might be!

Date:

Astronomy

Nov. 15, 2013 Rise Set
Actual Time 7:14 AM PST 4:37 PM PST
Civil Twilight 6:41 AM PST 5:10 PM PST
Nautical Twilight 6:05 AM PST 5:47 PM PST
Astronomical Twilight 5:29 AM PST 6:23 PM PST
Moon 3:43 PM PST (11/15) 5:10 AM PST (11/15)
Length of Visible Light 10h 28m
Length of Day
9h 22m
Waxing Gibbous, 97% of the Moon is Illuminated
Nov 15
Waxing Gibbous
Nov 17
Full
Nov 25
Last Quarter
Dec 2
New
Dec 9
First Quarter

Hourly Weather History & Observations

Time (PST) Temp. Windchill Dew Point Humidity Pressure Visibility Wind Dir Wind Speed Gust Speed Precip Events Conditions
12:15 AM 39.2 °F - 39.2 °F 100% 30.10 in 0.8 mi Calm Calm - N/A   Overcast
12:35 AM 39.2 °F - 39.2 °F 100% 30.10 in 0.5 mi Calm Calm - N/A Fog Fog
12:55 AM 37.4 °F 34.9 °F 37.4 °F 100% 30.10 in 1.5 mi West 3.5 mph - N/A   Mostly Cloudy
1:15 AM 37.4 °F - 37.4 °F 100% 30.10 in 2.5 mi Calm Calm - N/A   Partly Cloudy
1:35 AM 37.4 °F - 37.4 °F 100% 30.10 in 1.0 mi Calm Calm - N/A   Mostly Cloudy
1:55 AM 37.4 °F 34.9 °F 37.4 °F 100% 30.10 in 10.0 mi SSW 3.5 mph - N/A   Mostly Cloudy
2:15 AM 37.4 °F 34.9 °F 37.4 °F 100% 30.09 in 10.0 mi SW 3.5 mph - N/A   Overcast
2:35 AM 37.4 °F 33.8 °F 37.4 °F 100% 30.08 in 8.0 mi SSW 4.6 mph - N/A   Overcast
2:55 AM 37.4 °F 34.9 °F 37.4 °F 100% 30.07 in 1.0 mi WSW 3.5 mph - N/A   Overcast
3:15 AM 37.4 °F 33.8 °F 37.4 °F 100% 30.06 in 0.5 mi SW 4.6 mph - N/A Fog Fog
3:35 AM 37.4 °F 34.9 °F 37.4 °F 100% 30.06 in 3.0 mi WSW 3.5 mph - N/A   Overcast
3:55 AM 37.4 °F 34.9 °F 37.4 °F 100% 30.07 in 8.0 mi WSW 3.5 mph - N/A   Mostly Cloudy
4:15 AM 37.4 °F 33.8 °F 37.4 °F 100% 30.06 in 10.0 mi SSW 4.6 mph - N/A   Overcast
4:35 AM 39.2 °F 35.9 °F 39.2 °F 100% 30.05 in 10.0 mi SW 4.6 mph - N/A   Overcast
4:55 AM 39.2 °F 35.9 °F 39.2 °F 100% 30.05 in 10.0 mi WSW 4.6 mph - N/A   Overcast
5:15 AM 39.2 °F 37.0 °F 39.2 °F 100% 30.05 in 5.0 mi SW 3.5 mph - N/A   Overcast
5:35 AM 39.2 °F 35.0 °F 39.2 °F 100% 30.04 in 10.0 mi SSW 5.8 mph - N/A   Overcast
5:55 AM 41.0 °F 37.1 °F 41.0 °F 100% 30.04 in 10.0 mi SSW 5.8 mph - N/A   Overcast
6:15 AM 41.0 °F 39.0 °F 41.0 °F 100% 30.05 in 10.0 mi SW 3.5 mph - N/A   Overcast
6:35 AM 41.0 °F 38.0 °F 41.0 °F 100% 30.04 in 10.0 mi West 4.6 mph - N/A   Overcast
6:55 AM 41.0 °F 38.0 °F 41.0 °F 100% 30.03 in 8.0 mi South 4.6 mph - 0.01 in   Overcast
7:15 AM 41.0 °F 37.1 °F 41.0 °F 100% 30.03 in 6.0 mi SSW 5.8 mph - N/A   Overcast
7:35 AM 41.0 °F 36.4 °F 41.0 °F 100% 30.02 in 10.0 mi SSW 6.9 mph - N/A   Mostly Cloudy
7:55 AM 41.0 °F 38.0 °F 41.0 °F 100% 30.01 in 6.0 mi SW 4.6 mph - N/A   Mostly Cloudy
8:15 AM 41.0 °F 38.0 °F 41.0 °F 100% 30.01 in 5.0 mi SSW 4.6 mph - N/A   Mostly Cloudy
8:35 AM 42.8 °F 38.6 °F 42.8 °F 100% 29.99 in 7.0 mi South 6.9 mph - N/A   Overcast
8:55 AM 44.6 °F 42.2 °F 42.8 °F 93% 29.99 in 5.0 mi SSW 4.6 mph - N/A   Mostly Cloudy
9:15 AM 44.6 °F 42.2 °F 42.8 °F 93% 29.99 in 9.0 mi SSW 4.6 mph - N/A   Overcast
9:35 AM 46.4 °F 42.9 °F 42.8 °F 87% 29.97 in 10.0 mi South 6.9 mph - N/A   Overcast
9:55 AM 46.4 °F 43.5 °F 44.6 °F 93% 29.97 in 3.0 mi South 5.8 mph - N/A   Overcast
10:15 AM 46.4 °F 42.4 °F 42.8 °F 87% 29.95 in 5.0 mi South 8.1 mph - N/A   Mostly Cloudy
10:35 AM 46.4 °F 43.5 °F 42.8 °F 87% 29.95 in 5.0 mi South 5.8 mph - N/A   Mostly Cloudy
10:55 AM 46.4 °F 42.9 °F 42.8 °F 87% 29.94 in 4.0 mi South 6.9 mph - N/A   Overcast
11:35 AM 46.4 °F 43.5 °F 44.6 °F 93% 29.91 in 6.0 mi South 5.8 mph - N/A   Mostly Cloudy
11:55 AM 46.4 °F 43.5 °F 44.6 °F 93% 29.90 in 5.0 mi South 5.8 mph - 0.01 in   Mostly Cloudy
12:15 PM 46.4 °F 42.9 °F 44.6 °F 93% 29.88 in 5.0 mi South 6.9 mph - 0.01 in Rain Light Rain
12:35 PM 46.4 °F 42.9 °F 44.6 °F 93% 29.86 in 10.0 mi SSW 6.9 mph - 0.01 in   Mostly Cloudy
12:55 PM 46.4 °F 42.9 °F 44.6 °F 93% 29.85 in 8.0 mi South 6.9 mph - 0.01 in   Mostly Cloudy
1:15 PM 46.4 °F 42.4 °F 44.6 °F 93% 29.85 in 5.0 mi SSW 8.1 mph - 0.01 in Rain Light Rain
1:35 PM 46.4 °F 43.5 °F 44.6 °F 93% 29.83 in 6.0 mi SW 5.8 mph - 0.01 in Rain Light Rain
1:55 PM 46.4 °F 42.4 °F 44.6 °F 93% 29.82 in 6.0 mi South 8.1 mph - 0.02 in Rain Light Rain
2:15 PM 46.4 °F 43.5 °F 44.6 °F 93% 29.80 in 8.0 mi SSW 5.8 mph - 0.01 in Rain Light Rain
2:35 PM 46.4 °F 42.4 °F 44.6 °F 93% 29.78 in 4.0 mi South 8.1 mph - 0.01 in Rain Light Rain
2:55 PM 46.4 °F 42.4 °F 44.6 °F 93% 29.77 in 5.0 mi South 8.1 mph - 0.02 in Rain Light Rain
3:15 PM 46.4 °F 41.5 °F 44.6 °F 93% 29.74 in 6.0 mi SSE 10.4 mph - N/A Rain Light Rain
3:35 PM 46.4 °F 41.9 °F 44.6 °F 93% 29.73 in 4.0 mi South 9.2 mph - 0.01 in Rain Light Rain
3:55 PM 46.4 °F 42.4 °F 44.6 °F 93% 29.72 in 6.0 mi South 8.1 mph - 0.03 in Rain Light Rain
4:15 PM 46.4 °F 42.4 °F 44.6 °F 93% 29.71 in 5.0 mi South 8.1 mph - 0.02 in Rain Light Rain
4:35 PM 44.6 °F 39.7 °F 44.6 °F 100% 29.69 in 5.0 mi South 9.2 mph - 0.05 in Rain Light Rain
4:55 PM 44.6 °F 39.7 °F 44.6 °F 100% 29.67 in 5.0 mi South 9.2 mph - 0.09 in Rain Light Rain
5:15 PM 44.6 °F 38.8 °F 44.6 °F 100% 29.65 in 8.0 mi South 11.5 mph - 0.01 in Rain Light Rain
5:35 PM 44.6 °F 39.7 °F 44.6 °F 100% 29.64 in 6.0 mi South 9.2 mph - 0.04 in Rain Light Rain
5:55 PM 44.6 °F 39.2 °F 44.6 °F 100% 29.63 in 8.0 mi South 10.4 mph - 0.07 in Rain Light Rain
6:15 PM 44.6 °F 39.2 °F 44.6 °F 100% 29.61 in 6.0 mi South 10.4 mph - 0.02 in Rain Light Rain
6:35 PM 44.6 °F 39.2 °F 44.6 °F 100% 29.59 in 6.0 mi South 10.4 mph - 0.05 in Rain Light Rain
6:55 PM 44.6 °F 38.8 °F 44.6 °F 100% 29.57 in 7.0 mi SSE 11.5 mph 18.4 mph 0.06 in Rain Light Rain
7:15 PM 44.6 °F 38.4 °F 44.6 °F 100% 29.55 in 10.0 mi SSE 12.7 mph 18.4 mph N/A   Overcast
7:35 PM 46.4 °F 40.7 °F 44.6 °F 93% 29.53 in 8.0 mi SSE 12.7 mph 17.3 mph N/A   Overcast
7:55 PM 46.4 °F 41.9 °F 44.6 °F 93% 29.52 in 4.0 mi SSW 9.2 mph 19.6 mph 0.01 in Rain Light Rain
8:15 PM 46.4 °F 42.4 °F 44.6 °F 93% 29.50 in 3.0 mi South 8.1 mph - 0.01 in Rain Light Rain
8:35 PM 46.4 °F 43.5 °F 44.6 °F 93% 29.50 in 3.0 mi SSW 5.8 mph - 0.03 in Rain Light Rain
8:55 PM 46.4 °F 42.4 °F 46.4 °F 100% 29.49 in 2.5 mi SW 8.1 mph - 0.04 in Rain Light Rain
9:15 PM 48.2 °F - 48.2 °F 100% 29.48 in 3.0 mi SW 8.1 mph - N/A Rain Light Rain
9:35 PM 48.2 °F - 48.2 °F 100% 29.48 in 3.0 mi WSW 9.2 mph - N/A Rain Light Rain
9:55 PM 48.2 °F - 46.4 °F 93% 29.49 in 3.0 mi WNW 10.4 mph 16.1 mph N/A   Mostly Cloudy
10:15 PM 46.4 °F 42.4 °F 42.8 °F 87% 29.49 in 10.0 mi West 8.1 mph 20.7 mph N/A   Mostly Cloudy
10:35 PM 46.4 °F 42.9 °F 42.8 °F 87% 29.49 in 10.0 mi West 6.9 mph - 0.01 in   Mostly Cloudy
10:55 PM 46.4 °F 43.5 °F 41.0 °F 81% 29.49 in 10.0 mi WSW 5.8 mph - 0.01 in   Overcast
11:15 PM 46.4 °F 45.2 °F 41.0 °F 81% 29.49 in 9.0 mi West 3.5 mph - N/A   Overcast
11:35 PM 46.4 °F 41.9 °F 41.0 °F 81% 29.51 in 6.0 mi West 9.2 mph 17.3 mph N/A Rain Light Rain
11:55 PM 46.4 °F 44.3 °F 39.2 °F 76% 29.50 in 10.0 mi SW 4.6 mph - N/A   Overcast